map of DNK home
DNK - Airport
Location
City:  Dnepropetrovsk, Dnipropetrovsk, Ukraine
Name:Dnepropetrovsk International Airport
ICAO:UKDD
IATA:DNK

Details
Type:Airport (Aerodrome, Airfield)
Use:International (customs port of entry)
Latitude:4821'26"N (48.357222)
Longitude:3506'02"E (35.100556)
Datum:WGS 1984
Elevation:481 ft (147 m)
Variation:8.03E (WMM2015v2 magnetic declination)
0.12 annual change
Runways:1
Longest:9320 × 144 ft (2841 × 44 m), paved

Time
Time Zone:UTC+2 (DST+3)
Local Time:

Weather
METAR:UKDD 041300Z 16003MPS 130V200 CAVOK 08/03 Q1025 R08/210370 NOSIG
TAF:UKDD 041105Z 0412/0512 18006MPS 3100 BR BKN011 TX07/0412Z TN00/0503Z
BECMG 0418/0420 VRB01MPS 0200 FG VV001
TEMPO 0420/0424 1100 BR OVC004
BECMG 0506/0508 04004MPS 2100 -RA BR OVC007

Related Locations
Nearby:
Farthest:CHT: 10902 mi / 17545 km
Waitangi [Tuuta], CIT, NZ

Find:

   beyond  
but within

Other Information
Maps:
NOTAMs:
Links:
Sources:

  
  • flag of Ukraine
  • flag of Dnipropetrovsk
  

Sectional Chart

Flight Planning
at skyvector.com

Satellite Image

Google Maps Satellite view

 

Copyright © 2004-2019 Karl L. Swartz. All rights reserved.
The Great Circle Mapper name and logo are trademarks of the Great Circle Mapper.
All other trademarks mentioned herein belong to their respective owners.
Please see credits for attibutions and further copyright information.

  Follow gcmap on Facebook Follow gcmap on Twitter GCmap on LinkedIn

hCard Microformat

Geo Microformat